EW4055 Weather Reports


Display with metric or nautical units.
time (UTC)temp
F
wind
direction
speed
MPH
gust
MPH
rain 1hr
in
rain 24hr
in
rain mn
in
humidity
%
barometer
mb
20260505003647 59 235 2.0 3.0 0.00 0.00 0.00 68 1015.9
20260505002644 59 235 2.0 4.0 0.00 0.00 0.00 68 1016.0
20260505002338 59 254 1.0 3.0 0.00 0.00 0.00 69 1016.2
20260505000643 59 248 1.0 2.0 0.00 0.00 0.00 70 1016.3
20260504235641 59 248 1.0 2.0 0.00 0.00 0.00 69 1016.3
20260504234644 59 248 0.0 2.0 0.00 0.00 0.00 69 1016.6
20260504233641 59 248 2.0 3.0 0.00 0.00 0.00 69 1016.6
20260504232640 59 248 0.0 2.0 0.00 0.00 0.00 69 1016.7
20260504231641 59 248 0.0 2.0 0.00 0.00 0.00 68 1016.7
20260504230640 59 248 0.0 3.0 0.00 0.00 0.00 67 1016.9
20260504225642 59 248 1.0 2.0 0.00 0.00 0.00 66 1016.9
20260504224637 60 248 0.0 1.0 0.00 0.00 0.00 65 1017.2
20260504224254 60 248 2.0 2.0 0.00 0.00 0.00 64 1017.1
20260504222639 60 235 0.0 0.0 0.00 0.00 0.00 63 1016.9
20260504221640 61 235 0.0 2.0 0.00 0.00 0.00 62 1016.7
20260504221312 61 235 2.0 3.0 0.00 0.00 0.00 62 1016.8
20260504215638 62 240 1.0 3.0 0.00 0.00 0.00 62 1016.9
20260504215611 62 258 1.0 4.0 0.00 0.00 0.00 61 1017.1
20260504213639 62 262 2.0 3.0 0.00 0.00 0.00 60 1017.1
20260504212640 62 247 1.0 6.0 0.00 0.00 0.00 61 1017.1
20260504211638 62 243 2.0 7.0 0.00 0.00 0.00 63 1017.3
20260504210636 63 240 1.0 3.0 0.00 0.00 0.00 63 1017.2
20260504205637 63 261 2.0 3.0 0.00 0.00 0.00 63 1017.2
20260504204634 63 209 1.0 2.0 0.00 0.00 0.00 62 1017.3
20260504203636 63 209 0.0 2.0 0.00 0.00 0.00 60 1017.3
20260504202636 64 219 1.0 4.0 0.00 0.00 0.00 60 1017.2
20260504201640 64 213 1.0 4.0 0.00 0.00 0.00 59 1017.3
20260504200633 65 250 0.0 2.0 0.00 0.00 0.00 58 1017.3
20260504195637 65 250 1.0 4.0 0.00 0.00 0.00 56 1017.2
20260504194633 65 223 2.0 3.0 0.00 0.00 0.00 57 1017.3
20260504193635 65 247 1.0 4.0 0.00 0.00 0.00 55 1017.3
20260504193443 65 254 2.0 4.0 0.00 0.00 0.00 56 1017.2
20260504191751 64 228 0.0 2.0 0.00 0.00 0.00 57 1017.1
20260504191649 65 228 1.0 2.0 0.00 0.00 0.00 56 1017.2
20260504185632 65 228 2.0 3.0 0.00 0.00 0.00 57 1016.8
20260504184634 65 247 0.0 1.0 0.00 0.00 0.00 56 1016.8
20260504183635 66 247 0.0 4.0 0.00 0.00 0.00 55 1016.7
20260504182633 66 234 1.0 4.0 0.00 0.00 0.00 56 1016.7
20260504181632 66 190 1.0 4.0 0.00 0.00 0.00 55 1016.8
20260504180633 67 268 0.0 3.0 0.00 0.00 0.00 54 1016.7
20260504175634 67 292 0.0 2.0 0.00 0.00 0.00 52 1016.6
20260504174636 67 292 0.0 3.0 0.00 0.00 0.00 51 1016.7
20260504173737 69 142 1.0 2.0 0.00 0.00 0.00 50 1016.5
20260504173721 68 142 0.0 2.0 0.00 0.00 0.00 52 1016.6
20260504173639 68 271 1.0 2.0 0.00 0.00 0.00 53 1016.6
20260504170625 69 158 1.0 3.0 0.00 0.00 0.00 50 1016.6
20260504160334 70 135 2.0 9.0 0.00 0.00 0.00 49 1016.7
20260504150615 71 96 5.0 11.0 0.00 0.00 0.00 55 1016.9
20260504140633 73 111 6.0 14.0 0.00 0.00 0.00 50 1016.8
20260504100605 75 63 3.0 7.0 0.00 0.00 0.00 51 1018.4
20260504081606 71 79 2.0 4.0 0.00 0.00 0.00 55 1018.7
20260504080605 70 79 1.0 2.0 0.00 0.00 0.00 54 1018.6
20260504050604 58 247 0.0 2.0 0.00 0.00 0.00 69 1017.7
20260504045558 58 247 1.0 3.0 0.00 0.00 0.00 69 1017.7
20260504044554 58 261 0.0 1.0 0.00 0.00 0.00 68 1017.6
20260504044119 58 255 1.0 2.0 0.00 0.00 0.00 68 1017.5
20260504042556 58 257 1.0 3.0 0.00 0.00 0.00 67 1017.5
20260504041817 59 288 2.0 3.0 0.00 0.00 0.00 65 1017.4
20260504041638 59 269 2.0 3.0 0.00 0.00 0.00 66 1017.4
20260504040400 59 288 2.0 3.0 0.00 0.00 0.00 64 1017.4
20260504035656 59 288 2.0 2.0 0.00 0.00 0.00 65 1017.5
20260504033554 60 288 3.0 3.0 0.00 0.00 0.00 63 1017.3
20260504032554 60 278 3.0 5.0 0.00 0.00 0.00 64 1017.3
20260504031555 60 283 3.0 5.0 0.00 0.00 0.00 64 1017.4
20260504030554 60 293 2.0 4.0 0.00 0.00 0.00 64 1017.4
20260504025551 60 285 3.0 4.0 0.00 0.00 0.00 63 1017.5
20260504025138 60 278 3.0 4.0 0.00 0.00 0.00 63 1017.5
20260504023553 60 282 4.0 7.0 0.00 0.00 0.00 63 1017.5
20260504022549 61 283 4.0 4.0 0.00 0.00 0.00 63 1017.6
20260504021552 61 272 3.0 4.0 0.00 0.00 0.00 63 1017.6
20260504020548 61 279 3.0 4.0 0.00 0.00 0.00 63 1017.6
20260504015738 61 272 3.0 4.0 0.00 0.00 0.00 64 1017.4
20260504015631 61 271 3.0 4.0 0.00 0.00 0.00 63 1017.4
20260504013548 61 0.0 0.0 0.00 0.00 0.00 64 1017.4
20260504012625 62 274 4.0 5.0 0.00 0.00 0.00 62 1017.4
20260504012556 61 0.0 4.0 0.00 0.00 0.00 63 1017.5
20260504011654 62 276 3.0 5.0 0.00 0.00 0.00 63 1017.5
20260504005541 62 276 4.0 6.0 0.00 0.00 0.00 62 1017.4
20260504004544 62 275 4.0 7.0 0.00 0.00 0.00 62 1017.4